Station MOKH1 - 1612480 - Mokuoloe, HI Image indicating link to RSS feed of recent meteorological observations for station MOKH1


Conditions at MOKH1 as of
(3:36 am HAST)
1336 GMT on 06/21/2024:
     

Click on the graph icon in the table below to see a time series plot of the last five days of that observation.

5-day plot - Wind Direction Wind Direction (WDIR): E ( 80 deg true )
5-day plot - Wind Speed Wind Speed (WSPD): 8.0 kts
5-day plot - Wind Gust Wind Gust (GST): 12.0 kts
5-day plot - Atmospheric Pressure Atmospheric Pressure (PRES):30.05 in
5-day plot - Air Temperature Air Temperature (ATMP): 77.0 °F
5-day plot - Water Temperature Water Temperature (WTMP): 79.0 °F
5-day plot - Wind Speed at 10 Meters Wind Speed at 10 meters (WSPD10M): 7.8 kts
5-day plot - Wind Speed at 20 Meters Wind Speed at 20 meters (WSPD20M): 9.7 kts
5-day plot -  Wind Speed, Wind Gust and Atmospheric Pressure Combined plot of Wind Speed, Gust, and Air Pressure
NOS Water Level Observation Network Water Level
Previous observations
TIME
(HAST)
5-day plot - Wind Direction
WDIR
 
5-day plot - Wind Speed
WSPD
kts
5-day plot - Wind Gust
GST
kts
5-day plot - Wave Height
WVHT
ft
5-day plot - Dominant Wave Period
DPD
sec
5-day plot - Average Wave Period
APD
sec
5-day plot - Mean Wave Direction
MWD
 
5-day plot - Atmospheric Pressure
PRES
in
5-day plot - Pressure Tendency
PTDY
in
5-day plot - Air Temperature
ATMP
°F
5-day plot - Water Temperature
WTMP
°F
5-day plot - Dew Point
DEWP
°F
5-day plot - Salinity
SAL
psu
5-day plot - Visibility
VIS
nmi
5-day plot - Tide (above MLLW)
TIDE
ft
2024-06-21 03:30 am E 8.9 11.1----30.05- 77.0 79.0----
2024-06-21 03:24 amENE 9.9 17.1----30.05- 77.2 79.0----
2024-06-21 03:18 am E 11.1 15.9----30.05- 77.2 79.0----
2024-06-21 03:12 am E 8.0 13.0----30.05- 77.0 79.0----
2024-06-21 03:06 am E 7.0 12.0----30.05- 77.0 79.0----
2024-06-21 03:00 amENE 8.0 11.1----30.05-0.04 76.6 79.0----
2024-06-21 02:54 am E 7.0 11.1----30.05- 76.8 79.0----
2024-06-21 02:48 am E 7.0 12.0----30.05- 76.8 79.2----
2024-06-21 02:42 am E 9.9 13.0----30.06- 76.8 79.2----
2024-06-21 02:36 am E 7.0 13.0----30.06- 76.8 79.2----
2024-06-21 02:30 am E 9.9 14.0----30.06- 77.2 79.2----
2024-06-21 02:24 am E 8.0 14.0----30.06- 77.0 79.2----
2024-06-21 02:18 am E 8.9 14.0----30.06- 77.0 79.2----
2024-06-21 02:12 am E 8.0 12.0----30.06- 77.2 79.2----
2024-06-21 02:06 amENE 9.9 18.1----30.06- 77.0 79.2----
2024-06-21 02:00 am E 11.1 15.9----30.06-0.04 76.8 79.2----
2024-06-21 01:54 am E 12.0 15.9----30.06- 76.8 79.3----
2024-06-21 01:48 amENE 12.0 17.1----30.06- 76.8 79.3----
2024-06-21 01:42 am E 12.0 15.9----30.07- 76.8 79.3----
2024-06-21 01:36 am E 9.9 14.0----30.07- 77.0 79.3----
2024-06-21 01:30 am E 8.0 14.0----30.07- 76.8 79.3----
2024-06-21 01:24 amENE 9.9 11.1----30.07- 76.8 79.3----
2024-06-21 01:18 am E 8.9 17.1----30.07- 77.0 79.3----
2024-06-21 01:12 am E 13.0 18.1----30.07- 77.0 79.5----
2024-06-21 01:06 amENE 14.0 19.0----30.07- 77.2 79.5----
2024-06-21 01:00 am E 11.1 15.9----30.08-0.01 77.0 79.5----
2024-06-21 12:54 amENE 12.0 15.9----30.08- 77.0 79.5----
2024-06-21 12:48 am E 14.0 18.1----30.08- 77.2 79.5----
2024-06-21 12:42 amENE 15.0 22.0----30.08- 77.0 79.5----
2024-06-21 12:36 amENE 15.0 19.0----30.08- 77.2 79.5----
2024-06-21 12:30 am E 12.0 18.1----30.08- 77.2 79.5----
2024-06-21 12:24 amENE 14.0 17.1----30.08- 77.2 79.5----
2024-06-21 12:18 am E 11.1 15.9----30.09- 77.2 79.5----
2024-06-21 12:12 amENE 13.0 17.1----30.09- 77.2 79.5----
2024-06-21 12:06 am E 13.0 20.0----30.09- 77.2 79.5----
2024-06-21 12:00 amENE 14.0 18.1----30.09+0.01 77.2 79.5----
2024-06-20 11:54 pmENE 14.0 17.1----30.09- 77.2 79.5----
2024-06-20 11:48 pm E 13.0 15.9----30.09- 77.0 79.5----
2024-06-20 11:42 pmENE 14.0 18.1----30.09- 77.0 79.5----
2024-06-20 11:36 pmENE 15.0 18.1----30.09- 77.2 79.5----
2024-06-20 11:30 pm E 14.0 18.1----30.09- 77.4 79.5----
2024-06-20 11:24 pm E 11.1 15.9----30.09- 77.2 79.5----
2024-06-20 11:18 pmENE 15.0 18.1----30.10- 77.2 79.5----
2024-06-20 11:12 pmENE 15.0 18.1----30.10- 77.2 79.5----
2024-06-20 11:06 pmENE 14.0 19.0----30.10- 77.0 79.5----
2024-06-20 11:00 pmENE 17.1 20.0----30.10+0.04 77.2 79.5----
2024-06-20 10:54 pmENE 15.0 20.0----30.10- 77.4 79.5----
2024-06-20 10:48 pm E 15.9 19.0----30.10- 77.2 79.5----
2024-06-20 10:42 pmENE 14.0 17.1----30.10- 77.2 79.5----
2024-06-20 10:36 pmENE 14.0 17.1----30.09- 77.2 79.5----
2024-06-20 10:30 pmENE 13.0 18.1----30.09- 77.0 79.5----
2024-06-20 10:24 pm E 14.0 20.0----30.09- 77.2 79.5----
2024-06-20 10:18 pm E 15.0 19.0----30.09- 77.2 79.5----
2024-06-20 10:12 pm E 15.9 19.0----30.09- 77.0 79.5----
2024-06-20 10:06 pmENE 15.9 22.0----30.09- 77.2 79.5----
2024-06-20 10:00 pmENE 15.9 20.0----30.09+0.04 77.2 79.7----
2024-06-20 09:54 pmENE 15.9 20.0----30.09- 77.2 79.7----
2024-06-20 09:48 pmENE 15.0 19.0----30.09- 77.4 79.7----
2024-06-20 09:42 pmENE 18.1 20.0----30.09- 77.2 79.7----
2024-06-20 09:36 pmENE 13.0 18.1----30.08- 77.4 79.7----
2024-06-20 09:30 pmENE 13.0 15.9----30.08- 77.4 79.7----
2024-06-20 09:24 pmENE 13.0 18.1----30.08- 77.2 79.7----
2024-06-20 09:18 pmENE 15.0 19.0----30.08- 77.4 79.7----
2024-06-20 09:12 pmENE 17.1 19.0----30.08- 77.4 79.7----
2024-06-20 09:06 pm E 15.0 19.0----30.08- 77.4 79.7----
2024-06-20 09:00 pmENE 15.9 18.1----30.08+0.04 77.2 79.7----
2024-06-20 08:54 pm E 15.9 19.0----30.08- 77.4 79.7----
2024-06-20 08:48 pmENE 14.0 21.0----30.08- 77.2 79.7----
2024-06-20 08:42 pmENE 15.0 19.0----30.08- 77.5 79.7----
2024-06-20 08:36 pmENE 17.1 19.0----30.08- 77.4 79.7----
2024-06-20 08:30 pmENE 17.1 21.0----30.07- 77.2 79.7----
2024-06-20 08:24 pmENE 17.1 22.9----30.07- 77.4 79.7----
2024-06-20 08:18 pmENE 15.0 19.0----30.07- 77.4 79.9----
2024-06-20 08:12 pm E 13.0 17.1----30.07- 77.4 79.9----
2024-06-20 08:06 pmENE 14.0 17.1----30.07- 77.4 79.9----
2024-06-20 08:00 pmENE 14.0 18.1----30.06+0.03 77.7 79.9----
2024-06-20 07:54 pm E 14.0 18.1----30.06- 77.4 79.9----
2024-06-20 07:48 pmENE 14.0 18.1----30.06- 77.4 79.9----
2024-06-20 07:42 pm E 13.0 18.1----30.06- 77.4 79.9----
2024-06-20 07:36 pmENE 17.1 21.0----30.06- 77.2 79.9----
2024-06-20 07:30 pmENE 12.0 15.9----30.06- 77.4 79.9----
2024-06-20 07:24 pmENE 14.0 18.1----30.06- 77.4 79.9----
2024-06-20 07:18 pm E 12.0 15.0----30.06- 77.0 79.9----
2024-06-20 07:12 pmENE 9.9 15.0----30.06- 76.6 79.9----
2024-06-20 07:06 pmENE 13.0 18.1----30.06- 76.3 79.9----
2024-06-20 07:00 pmENE 15.9 20.0----30.06+0.03 76.6 79.9----
2024-06-20 06:54 pm E 9.9 17.1----30.06- 76.5 79.9----
2024-06-20 06:48 pm E 14.0 21.0----30.06- 76.6 79.9----
2024-06-20 06:42 pm E 14.0 19.0----30.06- 76.8 79.9----
2024-06-20 06:36 pm E 18.1 20.0----30.05- 76.5 79.9----
2024-06-20 06:30 pm E 12.0 17.1----30.05- 77.9 79.9----
2024-06-20 06:24 pm E 14.0 19.0----30.05- 77.5 79.9----
2024-06-20 06:18 pm E 11.1 15.9----30.05- 77.7 79.9----
2024-06-20 06:12 pm E 14.0 17.1----30.04- 77.7 79.9----
2024-06-20 06:06 pm E 11.1 22.9----30.04- 77.7 79.9----
2024-06-20 06:00 pm E 13.0 19.0----30.04+0.00 78.1 79.9----
2024-06-20 05:54 pm E 13.0 19.0----30.04- 78.1 79.9----
2024-06-20 05:48 pmENE 15.9 20.0----30.04- 78.1 79.9----
2024-06-20 05:42 pmENE 14.0 20.0----30.04- 77.9 79.9----
2024-06-20 05:36 pmENE 15.0 18.1----30.04- 77.7 79.9----
2024-06-20 05:30 pm E 14.0 17.1----30.03- 77.5 79.9----
2024-06-20 05:24 pmENE 14.0 18.1----30.03- 77.5 80.1----
2024-06-20 05:18 pm E 12.0 18.1----30.03- 77.0 80.1----
2024-06-20 05:12 pm E 12.0 15.9----30.03- 76.8 80.1----
2024-06-20 05:06 pm E 12.0 19.0----30.03- 76.1 80.1----
2024-06-20 05:00 pm E 15.9 22.0----30.03-0.01 76.5 80.1----
2024-06-20 04:54 pm E 12.0 17.1----30.03- 76.6 80.1----
2024-06-20 04:48 pm E 15.9 20.0----30.03- 77.0 80.1----
2024-06-20 04:42 pmENE 12.0 17.1----30.03- 79.2 80.1----
2024-06-20 04:36 pmENE 15.9 20.0----30.03- 78.8 80.1----
2024-06-20 04:30 pmENE 15.9 20.0----30.03- 78.4 80.1----
2024-06-20 04:24 pmENE 15.9 19.0----30.03- 78.8 80.1----
2024-06-20 04:18 pmENE 15.9 20.0----30.02- 79.2 80.1----
2024-06-20 04:12 pmENE 15.0 19.0----30.03- 79.2 80.1----
2024-06-20 04:06 pmENE 13.0 22.0----30.03- 79.2 80.1----
2024-06-20 04:00 pm E 14.0 18.1----30.03-0.03 78.8 80.1----
2024-06-20 03:54 pmENE 14.0 18.1----30.03- 78.8 80.1----
2024-06-20 03:48 pmENE 14.0 18.1----30.03- 78.8 80.1----
2024-06-20 03:42 pm E 13.0 15.9----30.03- 78.8 80.1----
2024-06-20 03:36 pm E 11.1 18.1----30.03- 78.8 80.1----
2024-06-20 03:30 pm E 8.9 19.0----30.03- 78.6 80.1----
2024-06-20 03:24 pmENE 15.0 19.0----30.03- 78.3 80.1----
2024-06-20 03:18 pmENE 15.0 18.1----30.03- 78.4 80.1----
2024-06-20 03:12 pm E 13.0 18.1----30.03- 78.6 80.1----
2024-06-20 03:06 pm E 11.1 19.0----30.03- 78.8 80.1----
2024-06-20 03:00 pm E 15.0 19.0----30.03-0.04 77.9 80.1----
2024-06-20 02:54 pm E 11.1 15.9----30.03- 78.4 80.1----
2024-06-20 02:48 pm E 13.0 17.1----30.03- 78.3 80.1----
2024-06-20 02:42 pm E 12.0 15.0----30.04- 77.2 80.1----
2024-06-20 02:36 pmENE 14.0 22.0----30.04- 75.9 80.1----
2024-06-20 02:30 pm E 18.1 22.0----30.04- 78.3 80.1----
2024-06-20 02:24 pmENE 14.0 19.0----30.04- 79.0 79.9----
2024-06-20 02:18 pm E 11.1 21.0----30.04- 79.2 79.9----
2024-06-20 02:12 pm E 9.9 17.1----30.04- 79.2 79.9----
2024-06-20 02:06 pm E 8.9 18.1----30.04- 79.5 79.9----
2024-06-20 02:00 pm E 14.0 18.1----30.04-0.04 79.3 79.9----
2024-06-20 01:54 pm E 9.9 20.0----30.04- 79.0 79.9----
2024-06-20 01:48 pm E 12.0 17.1----30.05- 79.3 79.9----
2024-06-20 01:42 pm E 9.9 17.1----30.05- 79.7 79.7----
2024-06-20 01:36 pm E 11.1 18.1----30.05- 79.5 79.7----
2024-06-20 01:30 pm E 8.0 15.0----30.05- 79.5 79.7----
2024-06-20 01:24 pm E 9.9 17.1----30.05- 79.0 79.7----
2024-06-20 01:18 pm E 8.0 17.1----30.05- 79.7 79.7----
2024-06-20 01:12 pm E 11.1 18.1----30.06- 79.5 79.7----
2024-06-20 01:06 pm E 11.1 15.9----30.06- 79.3 79.7----
2024-06-20 01:00 pm E 9.9 18.1----30.06-0.03 79.7 79.7----
2024-06-20 12:54 pm E 12.0 18.1----30.06- 79.5 79.7----
2024-06-20 12:48 pm E 8.0 18.1----30.06- 79.5 79.7----
2024-06-20 12:42 pm E 8.9 17.1----30.06- 78.8 79.5----
2024-06-20 12:36 pm E 11.1 15.0----30.07- 78.6 79.5----
2024-06-20 12:30 pmENE 14.0 17.1----30.07- 77.4 79.5----
2024-06-20 12:24 pm E 8.0 14.0----30.07- 79.7 79.5----
2024-06-20 12:18 pmESE 8.9 17.1----30.07- 80.2 79.5----
2024-06-20 12:12 pm E 9.9 20.0----30.07- 79.7 79.5----
2024-06-20 12:06 pm E 8.0 19.0----30.07- 80.1 79.5----
2024-06-20 12:00 pm E 8.0 20.0----30.08-0.01 79.5 79.5----
2024-06-20 11:54 am E 12.0 17.1----30.07- 79.5 79.5----
2024-06-20 11:48 am E 12.0 19.0----30.08- 79.5 79.5----
2024-06-20 11:42 am E 11.1 17.1----30.08- 79.0 79.5----
2024-06-20 11:36 am E 9.9 15.9----30.08- 79.7 79.5----
2024-06-20 11:30 am E 8.9 17.1----30.08- 79.7 79.5----
2024-06-20 11:24 am E 11.1 17.1----30.08- 79.5 79.5----
2024-06-20 11:18 am E 12.0 20.0----30.08- 79.3 79.5----
2024-06-20 11:12 am E 8.9 19.0----30.09- 79.5 79.5----
2024-06-20 11:06 am E 9.9 17.1----30.09- 79.7 79.3----
2024-06-20 11:00 am E 12.0 15.9----30.09+0.00 79.7 79.3----
2024-06-20 10:54 am E 8.9 18.1----30.09- 79.5 79.3----
2024-06-20 10:48 am E 8.0 13.0----30.09- 79.9 79.3----
2024-06-20 10:42 am E 8.0 18.1----30.09- 79.3 79.3----
2024-06-20 10:36 am E 13.0 19.0----30.09- 78.8 79.3----
2024-06-20 10:30 am E 14.0 20.0----30.09- 79.0 79.3----
2024-06-20 10:24 am E 8.9 19.0----30.09- 79.2 79.3----
2024-06-20 10:18 am E 12.0 18.1----30.09- 79.2 79.3----
2024-06-20 10:12 am E 13.0 21.0----30.09- 79.2 79.3----
2024-06-20 10:06 am E 11.1 18.1----30.09- 79.5 79.2----
2024-06-20 10:00 am E 9.9 15.9----30.09+0.00 79.5 79.2----
2024-06-20 09:54 am E 12.0 20.0----30.09- 79.2 79.2----
2024-06-20 09:48 am E 15.9 21.0----30.09- 79.0 79.2----
2024-06-20 09:42 am E 12.0 17.1----30.09- 79.3 79.2----
2024-06-20 09:36 am E 15.0 19.0----30.09- 79.0 79.2----
2024-06-20 09:30 am E 12.0 21.0----30.09- 79.2 79.2----
2024-06-20 09:24 am E 8.9 20.0----30.09- 79.5 79.2----
2024-06-20 09:18 am E 14.0 18.1----30.09- 79.2 79.2----
2024-06-20 09:12 am E 12.0 17.1----30.09- 79.5 79.2----
2024-06-20 09:06 am E 8.9 17.1----30.09- 79.9 79.2----
2024-06-20 09:00 am E 9.9 18.1----30.09+0.01 79.7 79.2----
2024-06-20 08:54 am E 8.9 15.0----30.09- 79.7 79.2----
2024-06-20 08:48 am E 9.9 18.1----30.09- 79.5 79.2----
2024-06-20 08:42 am E 8.9 17.1----30.09- 79.2 79.2----
2024-06-20 08:36 am E 12.0 15.9----30.09- 79.0 79.2----
2024-06-20 08:30 am E 9.9 18.1----30.09- 79.3 79.2----
2024-06-20 08:24 am E 8.9 18.1----30.09- 79.2 79.2----
2024-06-20 08:18 am E 9.9 15.9----30.09- 79.5 79.2----
2024-06-20 08:12 am E 11.1 18.1----30.09- 79.3 79.2----
2024-06-20 08:06 am E 8.9 18.1----30.09- 80.1 79.2----
2024-06-20 08:00 am E 11.1 21.0----30.09+0.04 79.3 79.2----
2024-06-20 07:54 am E 9.9 19.0----30.09- 79.2 79.2----
2024-06-20 07:48 am E 7.0 13.0----30.09- 79.3 79.2----
2024-06-20 07:42 am E 8.9 14.0----30.09- 78.3 79.2----
2024-06-20 07:36 am E 14.0 19.0----30.09- 78.4 79.2----
2024-06-20 07:30 am E 15.9 21.0----30.09- 78.3 79.2----
2024-06-20 07:24 am E 9.9 18.1----30.09- 78.4 79.2----
2024-06-20 07:18 am E 13.0 17.1----30.09- 78.1 79.2----
2024-06-20 07:12 am E 9.9 14.0----30.08- 77.2 79.2----
2024-06-20 07:06 am E 8.9 17.1----30.08- 77.2 79.2----
2024-06-20 07:00 am E 11.1 15.9----30.08+0.04 77.0 79.2----
2024-06-20 06:54 am E 8.0 14.0----30.08- 76.8 79.2----
2024-06-20 06:48 am E 12.0 20.0----30.08- 76.6 79.2----
2024-06-20 06:42 am E 13.0 19.0----30.08- 76.5 79.2----
2024-06-20 06:36 amENE 15.0 19.0----30.07- 75.9 79.2----
2024-06-20 06:30 amENE 15.0 19.0----30.07- 75.2 79.2----
2024-06-20 06:24 am E 8.9 15.0----30.08- 75.4 79.2----
2024-06-20 06:18 am E 4.1 7.0----30.08- 75.0 79.2----
2024-06-20 06:12 am E 4.1 9.9----30.08- 74.8 79.2----
2024-06-20 06:06 am E 8.9 14.0----30.08- 74.8 79.2----
2024-06-20 06:00 am E 8.9 15.9----30.08+0.02 74.5 79.2----
2024-06-20 05:54 am E 14.0 20.0----30.07- 74.7 79.2----
2024-06-20 05:48 am E 14.0 20.0----30.07- 75.7 79.2----
2024-06-20 05:42 am E 12.0 19.0----30.06- 75.7 79.3----
2024-06-20 05:36 am E 13.0 18.1----30.06- 75.2 79.3----
2024-06-20 05:30 am E 9.9 17.1----30.06- 74.8 79.3----
2024-06-20 05:24 amESE 11.1 20.0----30.06- 74.8 79.3----
2024-06-20 05:18 amESE 11.1 17.1----30.06- 75.7 79.3----
2024-06-20 05:12 am E 5.1 9.9----30.05- 74.8 79.3----
2024-06-20 05:06 am E 6.0 8.9----30.05- 75.0 79.3----
2024-06-20 05:00 am E 8.0 13.0----30.05-0.01 74.7 79.3----
2024-06-20 04:54 am E 7.0 14.0----30.05- 74.7 79.3----
2024-06-20 04:48 am E 11.1 14.0----30.05- 74.7 79.3----
2024-06-20 04:42 am E 12.0 21.0----30.05- 74.5 79.3----
2024-06-20 04:36 am E 14.0 20.0----30.05- 74.1 79.3----
2024-06-20 04:30 am E 12.0 18.1----30.05- 73.9 79.3----
2024-06-20 04:24 am E 9.9 15.9----30.05- 74.5 79.3----
2024-06-20 04:18 am E 13.0 20.0----30.05- 74.3 79.3----
2024-06-20 04:12 amESE 15.9 22.0----30.05- 74.7 79.3----
2024-06-20 04:06 amESE 14.0 20.0----30.05- 74.7 79.3----
2024-06-20 04:00 amESE 18.1 22.0----30.05-0.03 74.3 79.3----
2024-06-20 03:54 amESE 18.1 22.0----30.05- 75.0 79.3----